Weather History for KLGU - November, 2011

Change the Weather History Date:

Friday, November 11, 2011

  Actual Average Record
Temperature  
Mean Temperature 32 °F -  
Max Temperature 45 °F 48 °F 65 °F (1973)
Min Temperature 18 °F 25 °F 2 °F (1985)
Degree Days  
Heating Degree Days 34    
Moisture  
Dew Point 20 °F    
Average Humidity 68    
Maximum Humidity 88    
Minimum Humidity 40    
Precipitation  
Precipitation 0.00 in - - ()
Sea Level Pressure  
Sea Level Pressure 30.03 in    
Wind  
Wind Speed 1 mph (WNW)    
Max Wind Speed 7 mph    
Max Gust Speed -    
Visibility 10 miles    
Events      
Averages and records for this station are not official NWS values.
T = Trace of Precipitation, MM = Missing Value Source: NWS Daily Summary

Daily Weather History Graph

Daily Weather History Graph

Search for Another Location

Airport or City:

Trip Planner

Search our weather history database for the weather conditions in past years. The results will help you decide how hot, cold, wet, or windy it might be!

Date:

Astronomy

Nov. 11, 2011 Rise Set
Actual Time 7:11 AM MST 5:10 PM MST
Civil Twilight 6:42 AM MST 5:40 PM MST
Nautical Twilight 6:08 AM MST 6:13 PM MST
Astronomical Twilight 5:35 AM MST 6:46 PM MST
Moon 5:40 PM MST (11/11) 8:04 AM MST (11/11)
Length of Visible Light 10h 58m
Length of Day
9h 58m
Full, 99% of the Moon is Illuminated
Nov 11
Full
Nov 18
Last Quarter
Nov 24
New
Dec 2
First Quarter
Dec 10
Full

Hourly Weather History & Observations

Time (MST) Temp. Windchill Dew Point Humidity Pressure Visibility Wind Dir Wind Speed Gust Speed Precip Events Conditions
12:51 AM 19.9 °F 14.9 °F 16.0 °F 85% 30.23 in 10.0 mi SE 3.5 mph - N/A   Clear
1:51 AM 19.9 °F - 15.1 °F 81% 30.21 in 10.0 mi Calm Calm - N/A   Clear
2:51 AM 19.9 °F - 16.0 °F 85% 30.20 in 10.0 mi Calm Calm - N/A   Clear
3:51 AM 19.0 °F 12.3 °F 15.1 °F 85% 30.20 in 10.0 mi SW 4.6 mph - N/A   Clear
4:51 AM 19.0 °F - 15.1 °F 85% 30.17 in 10.0 mi Calm Calm - N/A   Clear
5:51 AM 18.0 °F - 15.1 °F 88% 30.19 in 10.0 mi Calm Calm - N/A   Clear
6:51 AM 19.0 °F - 12.9 °F 77% 30.17 in 10.0 mi Calm Calm - N/A   Clear
7:51 AM 18.0 °F - 14.0 °F 84% 30.17 in 10.0 mi Calm Calm - N/A   Clear
8:51 AM 24.1 °F - 19.9 °F 84% 30.16 in 10.0 mi Calm Calm - N/A   Clear
9:51 AM 30.0 °F - 23.0 °F 75% 30.13 in 10.0 mi Calm Calm - N/A   Clear
10:51 AM 36.0 °F - 19.9 °F 52% 30.09 in 10.0 mi Calm Calm - N/A   Clear
11:51 AM 39.9 °F - 19.9 °F 45% 30.03 in 10.0 mi Calm Calm - N/A   Clear
12:51 PM 43.0 °F 41.3 °F 21.0 °F 42% 30.00 in 10.0 mi NNW 3.5 mph - N/A   Clear
2:51 PM 45.0 °F 43.5 °F 21.9 °F 40% 29.95 in 10.0 mi WNW 3.5 mph - N/A   Clear
3:51 PM 45.0 °F - 21.9 °F 40% 29.92 in 10.0 mi Calm Calm - N/A   Clear
4:51 PM 42.1 °F - 24.1 °F 49% 29.91 in 10.0 mi Calm Calm - N/A   Clear
5:51 PM 36.0 °F - 24.1 °F 62% 29.92 in 10.0 mi Calm Calm - N/A   Clear
6:51 PM 30.0 °F - 21.9 °F 72% 29.91 in 10.0 mi Calm Calm - N/A   Clear
7:51 PM 30.9 °F - 21.9 °F 69% 29.89 in 10.0 mi Calm Calm - N/A   Clear
8:51 PM 32.0 °F - 21.9 °F 66% 29.85 in 10.0 mi Calm Calm - N/A   Clear
9:51 PM 30.9 °F 24.3 °F 21.9 °F 69% 29.81 in 10.0 mi ENE 6.9 mph - N/A   Partly Cloudy
10:51 PM 34.0 °F - 23.0 °F 64% 29.77 in 10.0 mi Calm Calm - N/A   Overcast
11:51 PM 35.1 °F - 23.0 °F 61% 29.75 in 10.0 mi Calm Calm - N/A   Overcast